Weather in Trenton

United States     40°13′19″N   74°45′52″W
temp.,
°C
wind,
m/s
gust,
m/s
humid.,
%
clouds,
%
prec.,
mm/h
press.,
hPa
HPBL,
m
26 may, thu
thu2623:00+11se2670100 0.0 1028218
02:00+11ese2478100 0.0 1027130
05:00+11ese2485100 0.0 1027143
08:00+14se3575100 0.0 1027376
11:00+20sse3553100 0.0 10251083
14:00+20s4562100 0.0 1023869
17:00+21s367199 0.0 1021853
20:00+18sse388698 0.1 1020458
27 may, fri
fri2723:00+18sse31191100 0.1 1019498
02:00+18sse2996100 0.1 1017437
05:00+18s4894100 0.0 1016487
08:00+20ssw4989100 0.0 1016498
11:00+26ssw596394 0.0 10141383
14:00+25sw6975100 1.3 10121310
17:00+21ssw41094100 3.6 1012639
20:00+19s31197100 7.3 1011616
28 may, sat
sat2823:00+19s51397100 2.3 1010877
02:00+18s41296100 3.0 1008714
05:00+18s3996100 0.0 1007505
08:00+19sw3793100 0.0 1007541
11:00+23w46605 0.0 10071162
14:00+25wsw46464 0.6 10061989
17:00+24nw565181 0.0 10071812
20:00+20wnw487399 0.1 1009469
29 may, sun
sun2923:00+18nw410813 0.0 1011445
02:00+16nw28870 0.0 1013268
05:00+14wnw25885 0.0 1015126
08:00+17nw2372100 0.0 1017271
11:00+23nnw235275 0.0 10171079
14:00+26nw233963 0.0 10171617
17:00+26wnw3340100 0.0 10161572
20:00+21w256299 0.0 1017100
30 may, mon
mon3023:00+19wsw227142 0.0 101833
02:00+18sw228062 0.0 101931
05:00+17sw2288100 0.0 101942
08:00+21sw3773100 0.0 1020368
11:00+27wsw465473 0.0 1019883
14:00+31wsw4642100 0.0 10171448
17:00+30w5748100 0.0 10151293
20:00+26sw386398 0.0 1015291